Flag for U.S.A. Weather past 2 weeks in Lafayette, Indiana, U.S.A.

Now
70 °F

Passing clouds.


Feels Like: 70 °F
Forecast: 67 / 83 °F
Wind: 5 mph from North

Location: Purdue University Airport

Current Time: Aug 29, 2014 at 10:06:43 AM

Latest Report: Aug 29, 2014 at 8:54 AM


Visibility: 10 mi

Pressure: 30.02 "Hg

Humidity: 81%

Dew point: 64 °F

Location of LafayetteLocation

Historic Weather in Lafayette — Graph

°F

Lafayette temperature yesterday

Maximum temperature yesterday: 81 °F (at 3:54 PM)
Minimum temperature yesterday: 63 °F (at 3:54 AM)
Average temperature yesterday: 71 °F

Past Weeks' High & Low Weather Summary

 TemperatureHumidityPressure
High88 °F (Aug 25, 3:54 PM)100% (Aug 15, 5:54 AM)30.11 "Hg (Aug 15, 5:54 AM)
Low45 °F (Aug 15, 6:54 AM)32% (Aug 15, 3:54 PM)29.75 "Hg (Aug 19, 4:54 PM)
Average71 °F85%29.97 "Hg
* Reported Aug 14 8:54 AM — Aug 29 8:54 AM, Lafayette, Weather by CustomWeather, © 2014

Note: Actual official high and low records may vary slightly from our data, if they occured in-between our weather recording intervals... More about our weather records

Advertising

Lafayette weather history for previous 24 hours

 ConditionsComfort  
Time TempWeatherWind HumidityBarometerVisibility
8:54 AM
Aug 29
70 °FPassing clouds.5 mph81%30.02 "Hg10 mi
7:54 AM70 °FPartly cloudy.7 mph79%30.01 "Hg10 mi
6:54 AM69 °FClear.6 mph81%29.99 "Hg10 mi
5:54 AM69 °FClear.6 mph81%29.99 "Hg10 mi
4:54 AM68 °FPassing clouds.3 mph90%30.00 "Hg10 mi
3:54 AM68 °FClear.7 mph90%29.99 "Hg10 mi
2:54 AM69 °FClear.7 mph87%30.00 "Hg10 mi
1:54 AM69 °FClear.6 mph87%30.02 "Hg10 mi
12:54 AM70 °FClear.6 mph84%30.04 "Hg10 mi
11:54 PM
Aug 28
69 °FClear.6 mph87%30.04 "Hg10 mi
10:54 PM71 °FClear.8 mph81%30.03 "Hg10 mi
9:54 PM72 °FClear.9 mph78%30.03 "Hg10 mi
8:54 PM73 °FSunny.7 mph76%30.02 "Hg10 mi
7:54 PM75 °FSunny.9 mph74%30.01 "Hg10 mi
6:54 PM79 °FSunny.7 mph65%30.02 "Hg10 mi
5:54 PM80 °FSunny.8 mph60%30.01 "Hg10 mi
4:54 PM81 °FSunny.8 mph58%30.02 "Hg10 mi
3:54 PM81 °FSunny.6 mph56%30.03 "Hg10 mi
2:54 PM79 °FSunny.3 mph58%30.05 "Hg10 mi
1:54 PM78 °FPassing clouds.No wind66%30.07 "Hg10 mi
12:54 PM76 °FPartly sunny.6 mph69%30.08 "Hg10 mi
11:54 AM75 °FScattered clouds.8 mph74%30.09 "Hg10 mi
10:54 AM70 °FOvercast.7 mph81%30.10 "Hg10 mi
Weather by CustomWeather, © 2014

See weather overviewHow to use our weather pages